START_TIME,STEP,MOV.,H8,t_acc.,H43,t_acc.,M25,t_acc.,H9,t_acc.
1979-08-05 03:00:28.170 ,1,0,0.,12.0,0.,12.0,0.,12.0,0.,12.0
1979-08-05 03:00:40.170 ,1,0,0.,12.0,0.,12.0,0.,12.0,0.,12.0
1979-08-05 03:00:52.170 ,2,1,0.,12.0,0.,12.0,0.,12.0,0.,12.0
1979-08-05 03:01:04.170 ,2,1,,0,,0,,0,,0
1979-08-05 03:01:16.170 ,2,0,0.,12.0,0.,12.0,0.,12.0,0.,12.0
1979-08-05 03:01:28.170 ,2,0,0.,12.0,0.,12.0,0.,12.0,0.,12.0
1979-08-05 03:01:40.170 ,3,0,0.,12.0,0.,12.0,0.,12.0,0.,12.0
1979-08-05 03:01:52.170 ,3,0,0.,12.0,0.,12.0,0.,12.0,0.,12.0
1979-08-05 03:02:04.170 ,3,0,0.,12.0,0.,12.0,0.,12.0,0.,12.0
1979-08-05 03:02:16.170 ,3,0,0.,12.0,0.,12.0,0.,12.0,0.,12.0
1979-08-05 03:02:28.170 ,4,0,0.,12.0,0.,12.0,0.,12.0,0.,12.0
1979-08-05 03:02:40.170 ,4,0,0.,12.0,0.,12.0,0.,12.0,0.,12.0
1979-08-05 03:02:52.170 ,4,0,0.,12.0,0.,12.0,0.,12.0,0.,12.0
1979-08-05 03:03:04.170 ,4,0,0.,12.0,0.,12.0,0.,12.0,0.,12.0
1979-08-05 03:03:16.170 ,5,0,0.,12.0,0.,12.0,0.,12.0,0.,12.0
1979-08-05 03:03:28.170 ,5,0,0.,12.0,0.,12.0,0.,12.0,0.,12.0
1979-08-05 03:03:40.170 ,5,0,0.,12.0,0.,12.0,0.,12.0,0.,12.0
1979-08-05 03:03:52.170 ,5,0,0.,12.0,0.,12.0,0.,12.0,0.,12.0
1979-08-05 03:04:04.170 ,6,0,0.,12.0,0.,12.0,0.,12.0,0.,12.0
1979-08-05 03:04:16.170 ,6,0,0.,12.0,0.,12.0,0.,12.0,0.,12.0
1979-08-05 03:04:28.170 ,6,0,0.,12.0,0.,12.0,0.,12.0,0.,12.0
1979-08-05 03:04:40.170 ,6,0,0.,12.0,0.,12.0,0.,12.0,0.,12.0
1979-08-05 03:04:52.170 ,7,0,0.,12.0,0.,12.0,0.,12.0,0.,12.0
1979-08-05 03:05:04.170 ,7,0,0.,12.0,0.,12.0,0.,12.0,0.,12.0
1979-08-05 03:05:16.170 ,7,0,0.,12.0,0.,12.0,0.,12.0,0.,12.0
1979-08-05 03:05:28.170 ,7,0,0.,12.0,0.,12.0,0.,12.0,0.,12.0
1979-08-05 03:05:40.170 ,7,0,0.,12.0,0.,12.0,0.,12.0,0.,12.0
1979-08-05 03:05:52.170 ,7,0,0.,12.0,0.,12.0,0.,12.0,0.,12.0
1979-08-05 03:06:04.170 ,7,0,0.,12.0,0.,12.0,0.,12.0,0.,12.0
1979-08-05 03:06:16.170 ,7,0,0.,12.0,0.,12.0,0.,12.0,0.,12.0
1979-08-05 03:06:28.170 ,6,0,0.,12.0,0.,12.0,0.,12.0,0.,12.0
1979-08-05 03:06:40.170 ,6,0,0.,12.0,0.,12.0,0.,12.0,0.,12.0
1979-08-05 03:06:52.170 ,6,0,0.,12.0,0.,12.0,0.,12.0,0.,12.0
1979-08-05 03:07:04.170 ,6,0,0.,12.0,0.,12.0,0.,12.0,0.,12.0
1979-08-05 03:07:16.170 ,5,0,0.,12.0,0.,12.0,0.,12.0,0.,12.0
1979-08-05 03:07:28.170 ,5,0,0.,12.0,0.,12.0,0.,12.0,0.,12.0
1979-08-05 03:07:40.170 ,5,0,0.,12.0,0.,12.0,0.,12.0,0.,12.0
1979-08-05 03:07:52.170 ,5,0,0.,12.0,0.,12.0,0.,12.0,0.,12.0
1979-08-05 03:08:04.170 ,4,0,0.,12.0,0.,12.0,0.,12.0,0.,12.0
1979-08-05 03:08:16.170 ,4,0,0.,12.0,0.,12.0,0.,12.0,0.,12.0
1979-08-05 03:08:28.170 ,0,0,0.,12.0,0.,12.0,0.,12.0,0.,12.0
1979-08-05 03:08:40.170 ,0,0,,0,,0,,0,,0
1979-08-05 03:08:37.170 ,0,0,,0,,0,,0,,0
1979-08-05 03:08:49.170 ,0,0,0.,12.0,0.,12.0,0.,12.0,0.,12.0
1979-08-05 03:08:52.170 ,3,0,0.,12.0,0.,12.0,0.,12.0,0.,12.0
1979-08-05 03:09:04.170 ,3,0,0.,12.0,0.,12.0,0.,12.0,0.,12.0
1979-08-05 03:09:16.170 ,3,0,0.,12.0,0.,12.0,0.,12.0,0.,12.0
1979-08-05 03:09:28.170 ,3,0,0.,12.0,0.,12.0,0.,12.0,0.,12.0
1979-08-05 03:09:40.170 ,2,0,0.,12.0,0.,12.0,0.,12.0,0.,12.0
1979-08-05 03:09:52.170 ,2,0,0.,12.0,0.,12.0,0.,12.0,0.,12.0
1979-08-05 03:10:04.170 ,2,0,0.,12.0,0.,12.0,0.,12.0,0.,12.0
1979-08-05 03:10:16.170 ,2,0,0.,12.0,0.,12.0,0.,12.0,0.,12.0
1979-08-05 03:10:28.170 ,1,0,0.,12.0,0.,12.0,0.,12.0,0.,12.0
1979-08-05 03:10:40.170 ,1,0,0.,12.0,0.,12.0,0.,12.0,0.,12.0
1979-08-05 03:10:52.170 ,1,0,0.,12.0,0.,12.0,0.,12.0,0.,12.0
1979-08-05 03:11:04.170 ,1,0,0.,12.0,0.,12.0,0.,12.0,0.,12.0
1979-08-05 03:11:16.170 ,0,0,0.,12.0,0.,12.0,0.,12.0,0.,12.0
1979-08-05 03:11:28.170 ,0,0,0.,12.0,0.,12.0,0.,12.0,0.,12.0
1979-08-05 03:11:40.170 ,0,0,0.,12.0,0.,12.0,0.,12.0,0.,12.0
1979-08-05 03:11:52.170 ,0,0,0.,12.0,0.,12.0,0.,12.0,0.,12.0
1979-08-05 03:12:04.170 ,0,0,0.,12.0,0.,12.0,0.,12.0,0.,12.0
1979-08-05 03:12:16.170 ,0,0,0.,12.0,0.,12.0,0.,12.0,0.,12.0
1979-08-05 03:12:28.170 ,0,0,0.,12.0,0.,12.0,0.,12.0,0.,12.0
1979-08-05 03:12:40.170 ,0,0,0.,12.0,0.,12.0,0.,12.0,0.,12.0
1979-08-05 03:12:52.170 ,1,0,0.,12.0,0.,12.0,0.,12.0,0.,12.0
1979-08-05 03:13:04.170 ,1,0,0.,12.0,0.,12.0,0.,12.0,0.,12.0
1979-08-05 03:13:16.170 ,1,0,0.,12.0,0.,12.0,0.,12.0,0.,12.0
1979-08-05 03:13:28.170 ,1,0,0.,12.0,0.,12.0,0.,12.0,0.,12.0
1979-08-05 03:13:40.170 ,2,0,0.,12.0,0.,12.0,0.,12.0,0.,12.0
1979-08-05 03:13:52.170 ,2,0,0.,12.0,0.,12.0,0.,12.0,0.,12.0
1979-08-05 03:14:04.170 ,2,0,0.,12.0,0.,12.0,0.,12.0,0.,12.0
1979-08-05 03:14:16.170 ,2,0,0.,12.0,0.,12.0,0.,12.0,0.,12.0
1979-08-05 03:14:28.170 ,3,0,0.,12.0,0.,12.0,0.,12.0,0.,12.0
1979-08-05 03:14:40.170 ,3,0,0.,12.0,0.,12.0,0.,12.0,0.,12.0
1979-08-05 03:14:52.170 ,3,0,0.,12.0,0.,12.0,0.,12.0,0.,12.0
1979-08-05 03:15:04.170 ,3,0,0.,12.0,0.,12.0,0.,12.0,0.,12.0
1979-08-05 03:15:16.170 ,4,0,0.,12.0,0.,12.0,0.,12.0,0.,12.0
1979-08-05 03:15:28.170 ,4,0,0.,12.0,0.,12.0,0.,12.0,0.,12.0
1979-08-05 03:15:40.170 ,4,0,0.,12.0,0.,12.0,0.,12.0,0.,12.0
1979-08-05 03:15:52.170 ,4,0,0.,12.0,0.,12.0,0.,12.0,0.,12.0
1979-08-05 03:16:04.170 ,5,0,0.,12.0,0.,12.0,0.,12.0,0.,12.0
1979-08-05 03:16:16.170 ,5,0,0.,12.0,0.,12.0,0.,12.0,0.,12.0
1979-08-05 03:16:28.170 ,5,0,0.,12.0,0.,12.0,0.,12.0,0.,12.0
1979-08-05 03:16:40.170 ,5,0,0.,12.0,0.,12.0,0.,12.0,0.,12.0
1979-08-05 03:16:52.170 ,6,0,0.,12.0,0.,12.0,0.,12.0,0.,12.0
1979-08-05 03:17:04.170 ,6,0,0.,12.0,0.,12.0,0.,12.0,0.,12.0
1979-08-05 03:17:16.170 ,6,0,,0,,0,,0,,0
1979-08-05 03:17:28.170 ,6,0,0.,12.0,0.,12.0,0.,12.0,0.,12.0
1979-08-05 03:17:40.170 ,7,0,0.,12.0,0.,12.0,0.,12.0,0.,12.0
1979-08-05 03:17:52.170 ,7,0,0.,12.0,0.,12.0,0.,12.0,0.,12.0
1979-08-05 03:18:04.170 ,7,0,0.,12.0,0.,12.0,0.,12.0,0.,12.0
1979-08-05 03:18:16.170 ,7,0,0.,12.0,0.,12.0,0.,12.0,0.,12.0
1979-08-05 03:18:28.170 ,7,0,0.,12.0,0.,12.0,0.,12.0,0.,12.0
1979-08-05 03:18:40.170 ,7,0,0.,12.0,0.,12.0,0.,12.0,0.,12.0
1979-08-05 03:18:52.170 ,7,0,0.,12.0,0.,12.0,0.,12.0,0.,12.0
1979-08-05 03:19:04.170 ,7,0,0.,12.0,0.,12.0,0.,12.0,0.,12.0
1979-08-05 03:19:16.170 ,6,0,0.,12.0,0.,12.0,0.,12.0,0.,12.0
1979-08-05 03:19:28.170 ,6,0,0.,12.0,0.,12.0,0.,12.0,0.,12.0
1979-08-05 03:19:40.170 ,6,0,0.,12.0,0.,12.0,0.,12.0,0.,12.0
1979-08-05 03:19:52.170 ,6,0,0.,12.0,0.,12.0,0.,12.0,0.,12.0
1979-08-05 03:20:04.170 ,5,0,0.,12.0,0.,12.0,0.,12.0,0.,12.0
1979-08-05 03:20:16.170 ,5,0,0.,12.0,0.,12.0,0.,12.0,0.,12.0
1979-08-05 03:20:28.170 ,5,0,0.,12.0,0.,12.0,0.,12.0,0.,12.0
1979-08-05 03:20:40.170 ,5,0,0.,12.0,0.,12.0,0.,12.0,0.,12.0
1979-08-05 03:20:52.170 ,4,0,0.,12.0,0.,12.0,0.,12.0,0.,12.0
1979-08-05 03:21:04.170 ,4,0,0.,12.0,0.,12.0,0.,12.0,0.,12.0
1979-08-05 03:21:16.170 ,0,0,0.,12.0,0.,12.0,0.,12.0,0.,12.0
1979-08-05 03:21:28.170 ,0,0,0.,12.0,0.,12.0,0.,12.0,0.,12.0
1979-08-05 03:21:40.170 ,3,0,0.,12.0,0.,12.0,0.,12.0,0.,12.0
1979-08-05 03:21:52.170 ,3,0,0.,12.0,0.,12.0,0.,12.0,0.,12.0
1979-08-05 03:22:04.170 ,3,0,0.,12.0,0.,12.0,0.,12.0,0.,12.0
1979-08-05 03:22:16.170 ,3,0,0.,12.0,0.,12.0,0.,12.0,0.,12.0
1979-08-05 03:22:28.170 ,2,0,0.,12.0,0.,12.0,0.,12.0,0.,12.0
1979-08-05 03:22:40.170 ,2,0,2.,12.0,0.,12.0,0.,12.0,0.,12.0
1979-08-05 03:22:52.170 ,2,0,0.,12.0,0.,12.0,0.,12.0,0.,12.0
1979-08-05 03:23:04.170 ,2,0,0.,12.0,0.,12.0,0.,12.0,0.,12.0
1979-08-05 03:23:16.170 ,1,0,0.,12.0,0.,12.0,0.,12.0,0.,12.0
1979-08-05 03:23:28.170 ,1,0,0.,12.0,0.,12.0,0.,12.0,0.,12.0
1979-08-05 03:23:40.170 ,1,0,0.,12.0,0.,12.0,0.,12.0,0.,12.0
1979-08-05 03:23:52.170 ,1,0,0.,12.0,0.,12.0,0.,12.0,0.,12.0
1979-08-05 03:24:04.170 ,0,0,0.,12.0,0.,12.0,0.,12.0,0.,12.0
1979-08-05 03:24:16.170 ,0,0,0.,12.0,0.,12.0,0.,12.0,0.,12.0
1979-08-05 03:24:28.170 ,0,0,0.,12.0,0.,12.0,0.,12.0,0.,12.0
1979-08-05 03:24:40.170 ,0,0,0.,12.0,0.,12.0,0.,12.0,0.,12.0
1979-08-05 03:24:52.170 ,0,0,0.,12.0,0.,12.0,0.,12.0,0.,12.0
1979-08-05 03:25:04.170 ,0,0,0.,12.0,0.,12.0,0.,12.0,0.,12.0
1979-08-05 03:25:16.170 ,0,0,0.,12.0,0.,12.0,0.,12.0,0.,12.0
1979-08-05 03:25:28.170 ,0,0,0.,12.0,0.,12.0,0.,12.0,0.,12.0
1979-08-05 03:25:40.170 ,1,0,0.,12.0,0.,12.0,0.,12.0,0.,12.0
1979-08-05 03:25:52.170 ,1,0,0.,12.0,0.,12.0,0.,12.0,0.,12.0
1979-08-05 03:26:04.170 ,1,0,0.,12.0,0.,12.0,0.,12.0,0.,12.0
1979-08-05 03:26:16.170 ,1,0,0.,12.0,0.,12.0,0.,12.0,0.,12.0
1979-08-05 03:26:28.170 ,2,0,0.,12.0,0.,12.0,0.,12.0,0.,12.0
1979-08-05 03:26:40.170 ,2,0,0.,12.0,0.,12.0,0.,12.0,0.,12.0
1979-08-05 03:26:52.170 ,2,0,0.,12.0,0.,12.0,0.,12.0,0.,12.0
1979-08-05 03:27:04.170 ,2,0,0.,12.0,0.,12.0,0.,12.0,0.,12.0
1979-08-05 03:27:16.170 ,3,0,0.,12.0,0.,12.0,0.,12.0,0.,12.0
1979-08-05 03:27:28.170 ,3,0,0.,12.0,0.,12.0,0.,12.0,0.,12.0
1979-08-05 03:27:40.170 ,3,0,0.,12.0,0.,12.0,0.,12.0,0.,12.0
1979-08-05 03:27:52.170 ,3,0,0.,12.0,0.,12.0,0.,12.0,0.,12.0
1979-08-05 03:28:04.170 ,4,0,0.,12.0,0.,12.0,0.,12.0,0.,12.0
1979-08-05 03:28:16.170 ,4,0,0.,12.0,0.,12.0,0.,12.0,0.,12.0
1979-08-05 03:28:28.170 ,4,0,0.,12.0,0.,12.0,0.,12.0,0.,12.0
1979-08-05 03:28:40.170 ,4,0,0.,12.0,0.,12.0,0.,12.0,0.,12.0
1979-08-05 03:28:52.170 ,5,0,0.,12.0,0.,12.0,0.,12.0,0.,12.0
1979-08-05 03:29:04.170 ,5,0,0.,12.0,0.,12.0,0.,12.0,0.,12.0
1979-08-05 03:29:16.170 ,5,0,0.,12.0,0.,12.0,0.,12.0,0.,12.0
1979-08-05 03:29:28.170 ,5,0,0.,12.0,0.,12.0,0.,12.0,0.,12.0
1979-08-05 03:29:40.170 ,6,0,0.,12.0,0.,12.0,0.,12.0,0.,12.0
1979-08-05 03:29:52.170 ,6,0,0.,12.0,0.,12.0,0.,12.0,0.,12.0
1979-08-05 03:30:04.170 ,6,0,0.,12.0,0.,12.0,0.,12.0,0.,12.0
1979-08-05 03:30:16.170 ,6,0,0.,12.0,0.,12.0,0.,12.0,0.,12.0
1979-08-05 03:30:28.170 ,7,0,0.,12.0,0.,12.0,0.,12.0,0.,12.0
1979-08-05 03:30:40.170 ,7,0,0.,12.0,0.,12.0,0.,12.0,0.,12.0
1979-08-05 03:30:52.170 ,7,0,0.,12.0,0.,12.0,0.,12.0,0.,12.0
1979-08-05 03:31:04.170 ,7,0,0.,12.0,0.,12.0,0.,12.0,0.,12.0
1979-08-05 03:31:16.170 ,3,1,0.,12.0,0.,12.0,0.,12.0,0.,12.0
1979-08-05 03:31:28.170 ,3,1,0.,12.0,0.,12.0,0.,12.0,0.,12.0
1979-08-05 03:31:40.170 ,0,1,0.,12.0,0.,12.0,0.,12.0,0.,12.0
1979-08-05 03:31:52.170 ,0,1,0.,12.0,0.,12.0,0.,12.0,0.,12.0
1979-08-05 03:32:04.170 ,4,1,0.,12.0,0.,12.0,0.,12.0,0.,12.0
1979-08-05 03:32:16.170 ,4,1,0.,12.0,0.,12.0,0.,12.0,0.,12.0
1979-08-05 03:32:28.170 ,7,1,0.,12.0,0.,12.0,0.,12.0,0.,12.0
1979-08-05 03:32:40.170 ,7,1,0.,12.0,0.,12.0,0.,12.0,0.,12.0
1979-08-05 03:32:52.170 ,3,1,0.,12.0,0.,12.0,0.,12.0,0.,12.0
1979-08-05 03:33:04.170 ,3,1,0.,12.0,0.,12.0,0.,12.0,0.,12.0
1979-08-05 03:33:16.170 ,0,1,0.,12.0,0.,12.0,0.,12.0,0.,12.0
1979-08-05 03:33:28.170 ,0,1,0.,12.0,0.,12.0,0.,12.0,0.,12.0
1979-08-05 03:33:40.170 ,4,1,0.,12.0,0.,12.0,0.,12.0,0.,12.0
1979-08-05 03:33:52.170 ,4,1,0.,12.0,0.,12.0,0.,12.0,0.,12.0
1979-08-05 03:34:04.170 ,7,1,0.,12.0,0.,12.0,0.,12.0,0.,12.0
1979-08-05 03:34:16.170 ,7,1,0.,12.0,0.,12.0,0.,12.0,0.,12.0
1979-08-05 03:34:28.170 ,3,1,0.,12.0,0.,12.0,0.,12.0,0.,12.0
1979-08-05 03:34:40.170 ,3,1,0.,12.0,0.,12.0,0.,12.0,0.,12.0
1979-08-05 03:34:52.170 ,0,1,0.,12.0,0.,12.0,0.,12.0,0.,12.0
1979-08-05 03:35:04.170 ,0,1,0.,12.0,0.,12.0,0.,12.0,0.,12.0
1979-08-05 03:35:16.170 ,4,1,0.,12.0,0.,12.0,0.,12.0,0.,12.0
1979-08-05 03:35:28.170 ,4,1,0.,12.0,0.,12.0,0.,12.0,0.,12.0
1979-08-05 03:35:40.170 ,7,1,0.,12.0,0.,12.0,0.,12.0,0.,12.0
1979-08-05 03:35:52.170 ,7,1,0.,12.0,0.,12.0,0.,12.0,0.,12.0
1979-08-05 03:36:04.170 ,3,1,0.,12.0,0.,12.0,0.,12.0,0.,12.0
1979-08-05 03:36:16.170 ,3,1,0.,12.0,0.,12.0,0.,12.0,0.,12.0
1979-08-05 03:36:28.170 ,0,1,0.,12.0,0.,12.0,0.,12.0,0.,12.0
1979-08-05 03:36:40.170 ,0,1,0.,12.0,0.,12.0,0.,12.0,0.,12.0
1979-08-05 03:36:52.170 ,4,1,0.,12.0,0.,12.0,0.,12.0,0.,12.0
1979-08-05 03:37:04.170 ,4,1,0.,12.0,0.,12.0,0.,12.0,0.,12.0
1979-08-05 03:37:16.170 ,7,1,0.,12.0,0.,12.0,0.,12.0,0.,12.0
1979-08-05 03:37:28.170 ,7,1,0.,12.0,0.,12.0,0.,12.0,0.,12.0
1979-08-05 03:37:40.170 ,3,1,0.,12.0,0.,12.0,0.,12.0,0.,12.0
1979-08-05 03:37:52.170 ,3,1,0.,12.0,0.,12.0,0.,12.0,0.,12.0
1979-08-05 03:38:04.170 ,0,1,0.,12.0,0.,12.0,0.,12.0,0.,12.0
1979-08-05 03:38:16.170 ,0,1,0.,12.0,0.,12.0,0.,12.0,0.,12.0
1979-08-05 03:38:28.170 ,4,1,0.,12.0,0.,12.0,0.,12.0,0.,12.0
1979-08-05 03:38:40.170 ,4,1,0.,12.0,0.,12.0,0.,12.0,0.,12.0
1979-08-05 03:38:52.170 ,7,1,0.,12.0,0.,12.0,0.,12.0,0.,12.0
1979-08-05 03:39:04.170 ,7,1,0.,12.0,0.,12.0,0.,12.0,0.,12.0
1979-08-05 03:39:16.170 ,3,1,0.,12.0,0.,12.0,0.,12.0,0.,12.0
1979-08-05 03:39:28.170 ,3,1,0.,12.0,0.,12.0,0.,12.0,0.,12.0
1979-08-05 03:39:40.170 ,0,1,0.,12.0,0.,12.0,0.,12.0,0.,12.0
1979-08-05 03:39:52.170 ,0,1,0.,12.0,0.,12.0,0.,12.0,0.,12.0
1979-08-05 03:40:04.170 ,4,1,0.,12.0,0.,12.0,0.,12.0,0.,12.0
1979-08-05 03:40:16.170 ,4,1,0.,12.0,0.,12.0,0.,12.0,0.,12.0
1979-08-05 03:40:28.170 ,7,1,0.,12.0,0.,12.0,0.,12.0,0.,12.0
1979-08-05 03:40:40.170 ,7,1,0.,12.0,0.,12.0,0.,12.0,0.,12.0
1979-08-05 03:40:52.170 ,3,1,0.,12.0,0.,12.0,0.,12.0,0.,12.0
1979-08-05 03:41:04.170 ,3,1,0.,12.0,0.,12.0,0.,12.0,0.,12.0
1979-08-05 03:41:16.170 ,0,1,0.,12.0,0.,12.0,0.,12.0,0.,12.0
1979-08-05 03:41:28.170 ,0,1,0.,12.0,0.,12.0,0.,12.0,0.,12.0
1979-08-05 03:41:40.170 ,0,0,0.,12.0,0.,12.0,0.,12.0,0.,12.0
1979-08-05 03:41:52.170 ,0,0,0.,12.0,0.,12.0,0.,12.0,0.,12.0
1979-08-05 03:42:04.170 ,0,0,,0,,0,,0,,0
1979-08-05 03:42:16.170 ,0,0,0.,12.0,0.,12.0,0.,12.0,0.,12.0
1979-08-05 03:42:28.170 ,5,0,0.,12.0,0.,12.0,0.,12.0,0.,12.0
1979-08-05 03:42:40.170 ,5,0,0.,12.0,0.,12.0,0.,12.0,0.,12.0
1979-08-05 03:42:52.170 ,5,0,0.,12.0,0.,12.0,0.,12.0,0.,12.0
1979-08-05 03:43:04.170 ,5,0,0.,12.0,0.,12.0,0.,12.0,0.,12.0
1979-08-05 03:43:16.170 ,4,0,0.,12.0,0.,12.0,0.,12.0,0.,12.0
1979-08-05 03:43:28.170 ,4,0,0.,12.0,0.,12.0,0.,12.0,0.,12.0
1979-08-05 03:43:40.170 ,4,0,0.,12.0,0.,12.0,0.,12.0,0.,12.0
1979-08-05 03:43:52.170 ,4,0,0.,12.0,0.,12.0,0.,12.0,0.,12.0
1979-08-05 03:44:04.170 ,3,0,0.,12.0,0.,12.0,0.,12.0,0.,12.0
1979-08-05 03:44:16.170 ,3,0,0.,12.0,0.,12.0,0.,12.0,0.,12.0
1979-08-05 03:44:28.170 ,3,0,0.,12.0,0.,12.0,0.,12.0,0.,12.0
1979-08-05 03:44:40.170 ,3,0,0.,12.0,0.,12.0,0.,12.0,0.,12.0
1979-08-05 03:44:52.170 ,2,0,0.,12.0,0.,12.0,0.,12.0,0.,12.0
1979-08-05 03:45:04.170 ,2,0,0.,12.0,0.,12.0,0.,12.0,0.,12.0
1979-08-05 03:45:16.170 ,2,0,0.,12.0,0.,12.0,0.,12.0,0.,12.0
1979-08-05 03:45:28.170 ,2,0,0.,12.0,0.,12.0,0.,12.0,0.,12.0
1979-08-05 03:45:40.170 ,1,0,0.,12.0,0.,12.0,0.,12.0,0.,12.0
1979-08-05 03:45:52.170 ,1,0,0.,12.0,0.,12.0,0.,12.0,0.,12.0
1979-08-05 03:46:04.170 ,1,0,0.,12.0,0.,12.0,0.,12.0,0.,12.0
1979-08-05 03:46:16.170 ,1,0,0.,12.0,0.,12.0,0.,12.0,0.,12.0
1979-08-05 03:46:28.170 ,0,0,0.,12.0,0.,12.0,0.,12.0,0.,12.0
1979-08-05 03:46:40.170 ,0,0,0.,12.0,0.,12.0,0.,12.0,0.,12.0
1979-08-05 03:46:52.170 ,0,0,0.,12.0,0.,12.0,0.,12.0,0.,12.0
1979-08-05 03:47:04.170 ,0,0,0.,12.0,0.,12.0,0.,12.0,0.,12.0
1979-08-05 03:47:16.170 ,0,0,0.,12.0,0.,12.0,0.,12.0,0.,12.0
1979-08-05 03:47:28.170 ,0,0,0.,12.0,0.,12.0,0.,12.0,0.,12.0
1979-08-05 03:47:40.170 ,0,0,0.,12.0,0.,12.0,0.,12.0,0.,12.0
1979-08-05 03:47:52.170 ,0,0,0.,12.0,0.,12.0,0.,12.0,0.,12.0
1979-08-05 03:48:04.170 ,1,0,0.,12.0,0.,12.0,0.,12.0,0.,12.0
1979-08-05 03:48:16.170 ,1,0,0.,12.0,0.,12.0,0.,12.0,0.,12.0
1979-08-05 03:48:28.170 ,1,0,0.,12.0,0.,12.0,0.,12.0,0.,12.0
1979-08-05 03:48:40.170 ,1,0,0.,12.0,0.,12.0,0.,12.0,0.,12.0
1979-08-05 03:48:52.170 ,2,0,0.,12.0,0.,12.0,0.,12.0,0.,12.0
1979-08-05 03:49:04.170 ,2,0,0.,12.0,0.,12.0,0.,12.0,0.,12.0
1979-08-05 03:49:16.170 ,2,0,0.,12.0,0.,12.0,0.,12.0,0.,12.0
1979-08-05 03:49:28.170 ,2,0,0.,12.0,0.,12.0,0.,12.0,0.,12.0
1979-08-05 03:49:40.170 ,3,0,0.,12.0,0.,12.0,0.,12.0,0.,12.0
1979-08-05 03:49:52.170 ,3,0,0.,12.0,0.,12.0,0.,12.0,0.,12.0
1979-08-05 03:50:04.170 ,3,0,0.,12.0,0.,12.0,0.,12.0,0.,12.0
1979-08-05 03:50:16.170 ,3,0,0.,12.0,0.,12.0,0.,12.0,0.,12.0
1979-08-05 03:50:28.170 ,4,0,0.,12.0,0.,12.0,0.,12.0,0.,12.0
1979-08-05 03:50:40.170 ,4,0,0.,12.0,0.,12.0,0.,12.0,0.,12.0
1979-08-05 03:50:52.170 ,4,0,0.,12.0,0.,12.0,0.,12.0,0.,12.0
1979-08-05 03:51:04.170 ,4,0,0.,12.0,0.,12.0,0.,12.0,0.,12.0
1979-08-05 03:51:16.170 ,5,0,0.,12.0,0.,12.0,0.,12.0,0.,12.0
1979-08-05 03:51:28.170 ,5,0,0.,12.0,0.,12.0,0.,12.0,0.,12.0
1979-08-05 03:51:40.170 ,5,0,0.,12.0,0.,12.0,0.,12.0,0.,12.0
1979-08-05 03:51:52.170 ,5,0,0.,12.0,0.,12.0,0.,12.0,0.,12.0
1979-08-05 03:52:04.170 ,6,0,0.,12.0,0.,12.0,0.,12.0,0.,12.0
1979-08-05 03:52:16.170 ,6,0,0.,12.0,0.,12.0,0.,12.0,0.,12.0
1979-08-05 03:52:28.170 ,6,0,0.,12.0,0.,12.0,0.,12.0,0.,12.0
1979-08-05 03:52:40.170 ,6,0,0.,12.0,0.,12.0,0.,12.0,0.,12.0
1979-08-05 03:52:52.170 ,7,0,0.,12.0,0.,12.0,0.,12.0,0.,12.0
1979-08-05 03:53:04.170 ,7,0,0.,12.0,0.,12.0,0.,12.0,0.,12.0
1979-08-05 03:53:16.170 ,7,0,0.,12.0,0.,12.0,0.,12.0,0.,12.0
1979-08-05 03:53:28.170 ,7,0,0.,12.0,0.,12.0,0.,12.0,0.,12.0
1979-08-05 03:53:40.170 ,7,0,0.,12.0,0.,12.0,0.,12.0,0.,12.0
1979-08-05 03:53:52.170 ,7,0,0.,12.0,0.,12.0,0.,12.0,0.,12.0
1979-08-05 03:54:04.170 ,7,0,0.,12.0,0.,12.0,0.,12.0,0.,12.0
1979-08-05 03:54:16.170 ,7,0,0.,12.0,0.,12.0,0.,12.0,0.,12.0
1979-08-05 03:54:28.170 ,6,0,0.,12.0,0.,12.0,0.,12.0,0.,12.0
1979-08-05 03:54:40.170 ,6,0,0.,12.0,0.,12.0,0.,12.0,0.,12.0
1979-08-05 03:54:52.170 ,6,0,0.,12.0,0.,12.0,0.,12.0,0.,12.0
1979-08-05 03:55:04.170 ,6,0,0.,12.0,0.,12.0,0.,12.0,0.,12.0
1979-08-05 03:55:16.170 ,5,0,0.,12.0,0.,12.0,0.,12.0,0.,12.0
1979-08-05 03:55:28.170 ,5,0,0.,12.0,0.,12.0,0.,12.0,0.,12.0
1979-08-05 03:55:40.170 ,5,0,0.,12.0,0.,12.0,0.,12.0,0.,12.0
1979-08-05 03:55:52.170 ,5,0,0.,12.0,0.,12.0,0.,12.0,0.,12.0
1979-08-05 03:56:04.170 ,4,0,0.,12.0,0.,12.0,0.,12.0,0.,12.0
1979-08-05 03:56:16.170 ,4,0,0.,12.0,0.,12.0,0.,12.0,0.,12.0
1979-08-05 03:56:28.170 ,4,0,0.,12.0,0.,12.0,0.,12.0,0.,12.0
1979-08-05 03:56:40.170 ,4,0,0.,12.0,0.,12.0,0.,12.0,0.,12.0
1979-08-05 03:56:52.170 ,3,0,0.,12.0,0.,12.0,0.,12.0,0.,12.0
1979-08-05 03:57:04.170 ,3,0,0.,12.0,0.,12.0,0.,12.0,0.,12.0
1979-08-05 03:57:16.170 ,3,0,0.,12.0,0.,12.0,0.,12.0,0.,12.0
1979-08-05 03:57:28.170 ,3,0,0.,12.0,0.,12.0,0.,12.0,0.,12.0
1979-08-05 03:57:40.170 ,2,0,0.,12.0,0.,12.0,0.,12.0,0.,12.0
1979-08-05 03:57:52.170 ,2,0,0.,12.0,0.,12.0,0.,12.0,0.,12.0
1979-08-05 03:58:04.170 ,0,0,0.,12.0,0.,12.0,0.,12.0,0.,12.0
1979-08-05 03:58:16.170 ,0,0,0.,12.0,0.,12.0,0.,12.0,0.,12.0
1979-08-05 03:58:28.170 ,1,0,0.,12.0,0.,12.0,0.,12.0,0.,12.0
1979-08-05 03:58:40.170 ,1,0,0.,12.0,0.,12.0,0.,12.0,0.,12.0
1979-08-05 03:58:52.170 ,1,0,0.,12.0,0.,12.0,0.,12.0,0.,12.0
1979-08-05 03:59:04.170 ,1,0,0.,12.0,0.,12.0,0.,12.0,0.,12.0
1979-08-05 03:59:16.170 ,0,0,0.,12.0,0.,12.0,0.,12.0,0.,12.0
1979-08-05 03:59:28.170 ,0,0,0.,12.0,0.,12.0,0.,12.0,0.,12.0
1979-08-05 03:59:40.170 ,0,0,0.,12.0,0.,12.0,0.,12.0,0.,12.0
1979-08-05 03:59:52.170 ,0,0,0.,12.0,0.,12.0,0.,12.0,0.,12.0
1979-08-05 04:00:04.170 ,0,0,0.,12.0,0.,12.0,0.,12.0,0.,12.0
1979-08-05 04:00:16.170 ,0,0,0.,12.0,0.,12.0,0.,12.0,0.,12.0
1979-08-05 04:00:28.170 ,0,0,0.,12.0,0.,12.0,0.,12.0,0.,12.0
1979-08-05 04:00:40.170 ,0,0,0.,12.0,0.,12.0,0.,12.0,0.,12.0
1979-08-05 04:00:52.170 ,1,0,0.,12.0,0.,12.0,0.,12.0,0.,12.0
1979-08-05 04:01:04.170 ,1,0,0.,12.0,0.,12.0,0.,12.0,0.,12.0
1979-08-05 04:01:16.170 ,1,0,0.,12.0,0.,12.0,0.,12.0,0.,12.0
1979-08-05 04:01:28.170 ,1,0,0.,12.0,0.,12.0,0.,12.0,0.,12.0
1979-08-05 04:01:40.170 ,2,0,0.,12.0,0.,12.0,0.,12.0,0.,12.0
1979-08-05 04:01:52.170 ,2,0,0.,12.0,0.,12.0,0.,12.0,0.,12.0
1979-08-05 04:02:04.170 ,2,0,0.,12.0,0.,12.0,0.,12.0,0.,12.0
1979-08-05 04:02:16.170 ,2,0,0.,12.0,0.,12.0,0.,12.0,0.,12.0
1979-08-05 04:02:28.160 ,3,0,0.,12.0,0.,12.0,0.,12.0,0.,12.0
1979-08-05 04:02:40.170 ,3,0,0.,12.0,0.,12.0,0.,12.0,0.,12.0
1979-08-05 04:02:52.160 ,3,0,0.,12.0,0.,12.0,0.,12.0,0.,12.0
1979-08-05 04:03:04.160 ,3,0,0.,12.0,0.,12.0,0.,12.0,0.,12.0
1979-08-05 04:03:16.160 ,4,0,0.,12.0,0.,12.0,0.,12.0,0.,12.0
1979-08-05 04:03:28.170 ,4,0,0.,12.0,0.,12.0,0.,12.0,0.,12.0
1979-08-05 04:03:40.160 ,4,0,0.,12.0,0.,12.0,0.,12.0,0.,12.0
1979-08-05 04:03:52.170 ,4,0,0.,12.0,0.,12.0,0.,12.0,0.,12.0
1979-08-05 04:04:04.160 ,5,0,0.,12.0,0.,12.0,0.,12.0,0.,12.0
1979-08-05 04:04:16.170 ,5,0,0.,12.0,0.,12.0,0.,12.0,0.,12.0
1979-08-05 04:04:28.170 ,5,0,0.,12.0,0.,12.0,0.,12.0,0.,12.0
1979-08-05 04:04:40.170 ,5,0,0.,12.0,0.,12.0,0.,12.0,0.,12.0
1979-08-05 04:04:52.170 ,6,0,0.,12.0,0.,12.0,0.,12.0,0.,12.0
1979-08-05 04:05:04.170 ,6,0,0.,12.0,0.,12.0,0.,12.0,0.,12.0
1979-08-05 04:05:16.170 ,6,0,0.,12.0,0.,12.0,0.,12.0,0.,12.0
1979-08-05 04:05:28.170 ,6,0,0.,12.0,0.,12.0,0.,12.0,0.,12.0
1979-08-05 04:05:40.170 ,7,0,0.,12.0,0.,12.0,0.,12.0,0.,12.0
1979-08-05 04:05:52.170 ,7,0,0.,12.0,0.,12.0,0.,12.0,0.,12.0
1979-08-05 04:06:04.170 ,7,0,0.,12.0,0.,12.0,0.,12.0,0.,12.0
1979-08-05 04:06:16.170 ,7,0,0.,12.0,0.,12.0,0.,12.0,0.,12.0
1979-08-05 04:06:28.170 ,7,0,0.,12.0,0.,12.0,0.,12.0,0.,12.0
1979-08-05 04:06:40.170 ,7,0,0.,12.0,0.,12.0,0.,12.0,0.,12.0
1979-08-05 04:06:52.170 ,7,0,0.,12.0,0.,12.0,0.,12.0,0.,12.0
1979-08-05 04:07:04.170 ,7,0,0.,12.0,0.,12.0,0.,12.0,0.,12.0
1979-08-05 04:07:16.170 ,6,0,0.,12.0,0.,12.0,0.,12.0,0.,12.0
1979-08-05 04:07:28.170 ,6,0,0.,12.0,0.,12.0,0.,12.0,0.,12.0
1979-08-05 04:07:40.170 ,6,0,0.,12.0,0.,12.0,0.,12.0,0.,12.0
1979-08-05 04:07:52.170 ,6,0,0.,12.0,0.,12.0,0.,12.0,0.,12.0
1979-08-05 04:08:04.170 ,5,0,0.,12.0,0.,12.0,0.,12.0,0.,12.0
1979-08-05 04:08:16.170 ,5,0,0.,12.0,0.,12.0,0.,12.0,0.,12.0
1979-08-05 04:08:28.170 ,5,0,0.,12.0,0.,12.0,0.,12.0,0.,12.0
1979-08-05 04:08:40.170 ,5,0,0.,12.0,0.,12.0,0.,12.0,0.,12.0
1979-08-05 04:08:52.160 ,4,0,0.,12.0,0.,12.0,0.,12.0,0.,12.0
1979-08-05 04:09:04.160 ,4,0,0.,12.0,0.,12.0,0.,12.0,0.,12.0
1979-08-05 04:09:16.160 ,4,0,0.,12.0,0.,12.0,0.,12.0,0.,12.0
1979-08-05 04:09:28.160 ,4,0,0.,12.0,0.,12.0,0.,12.0,0.,12.0
1979-08-05 04:09:40.160 ,3,0,0.,12.0,0.,12.0,0.,12.0,0.,12.0
1979-08-05 04:09:52.160 ,3,0,0.,12.0,0.,12.0,0.,12.0,0.,12.0
1979-08-05 04:10:04.160 ,3,0,0.,12.0,0.,12.0,0.,12.0,0.,12.0
1979-08-05 04:10:16.160 ,3,0,0.,12.0,0.,12.0,0.,12.0,0.,12.0
1979-08-05 04:10:28.160 ,2,0,0.,12.0,0.,12.0,0.,12.0,0.,12.0
1979-08-05 04:10:40.160 ,2,0,0.,12.0,0.,12.0,0.,12.0,0.,12.0
1979-08-05 04:10:52.160 ,2,0,0.,12.0,0.,12.0,0.,12.0,0.,12.0
1979-08-05 04:11:04.160 ,2,0,0.,12.0,0.,12.0,0.,12.0,0.,12.0
1979-08-05 04:11:16.160 ,1,0,0.,12.0,0.,12.0,0.,12.0,0.,12.0
1979-08-05 04:11:28.160 ,1,0,0.,12.0,0.,12.0,0.,12.0,0.,12.0
1979-08-05 04:11:40.160 ,1,0,0.,12.0,0.,12.0,0.,12.0,0.,12.0
1979-08-05 04:11:52.160 ,1,0,0.,12.0,0.,12.0,0.,12.0,0.,12.0
1979-08-05 04:12:04.160 ,0,0,0.,12.0,0.,12.0,0.,12.0,0.,12.0
1979-08-05 04:12:16.160 ,0,0,0.,12.0,0.,12.0,0.,12.0,0.,12.0
1979-08-05 04:12:28.160 ,0,0,0.,12.0,0.,12.0,0.,12.0,0.,12.0
1979-08-05 04:12:40.160 ,0,0,0.,12.0,0.,12.0,0.,12.0,0.,12.0
1979-08-05 04:12:52.160 ,0,0,0.,12.0,0.,12.0,0.,12.0,0.,12.0
1979-08-05 04:13:04.160 ,0,0,0.,12.0,0.,12.0,0.,12.0,0.,12.0
1979-08-05 04:13:16.160 ,0,0,0.,12.0,0.,12.0,0.,12.0,0.,12.0
1979-08-05 04:13:28.160 ,0,0,0.,12.0,0.,12.0,0.,12.0,0.,12.0
1979-08-05 04:13:40.160 ,1,0,0.,12.0,0.,12.0,0.,12.0,0.,12.0
1979-08-05 04:13:52.160 ,1,0,0.,12.0,0.,12.0,0.,12.0,0.,12.0
1979-08-05 04:14:04.160 ,1,0,0.,12.0,0.,12.0,0.,12.0,0.,12.0
1979-08-05 04:14:16.160 ,1,0,0.,12.0,0.,12.0,0.,12.0,0.,12.0
1979-08-05 04:14:28.160 ,2,0,2.,12.0,0.,12.0,0.,12.0,0.,12.0
1979-08-05 04:14:40.160 ,2,0,0.,12.0,0.,12.0,0.,12.0,0.,12.0
1979-08-05 04:14:52.160 ,2,0,0.,12.0,0.,12.0,0.,12.0,0.,12.0
1979-08-05 04:15:04.160 ,2,0,0.,12.0,0.,12.0,0.,12.0,0.,12.0
1979-08-05 04:15:16.160 ,3,0,0.,12.0,0.,12.0,0.,12.0,0.,12.0
1979-08-05 04:15:28.160 ,3,0,0.,12.0,0.,12.0,0.,12.0,0.,12.0
1979-08-05 04:15:40.160 ,3,0,0.,12.0,0.,12.0,0.,12.0,0.,12.0
1979-08-05 04:15:52.160 ,3,0,0.,12.0,0.,12.0,0.,12.0,0.,12.0
1979-08-05 04:16:04.160 ,4,1,0.,12.0,0.,12.0,0.,12.0,0.,12.0
1979-08-05 04:16:16.160 ,4,1,,0,,0,,0,,0
1979-08-05 04:16:28.160 ,4,0,0.,12.0,0.,12.0,0.,12.0,0.,12.0
1979-08-05 04:16:40.160 ,4,0,0.,12.0,0.,12.0,0.,12.0,0.,12.0
1979-08-05 04:16:52.160 ,5,0,0.,12.0,0.,12.0,0.,12.0,0.,12.0
1979-08-05 04:17:04.160 ,5,0,0.,12.0,0.,12.0,0.,12.0,0.,12.0
1979-08-05 04:17:16.160 ,5,0,0.,12.0,0.,12.0,0.,12.0,0.,12.0
1979-08-05 04:17:28.160 ,5,0,0.,12.0,0.,12.0,0.,12.0,0.,12.0